Погода в Тулиаре

Мадагаскар     23°22′10″S   43°43′06″E
темп.,
°C
ветер,
м/с
пор.,
м/с
влажн.,
%
обл.,
%
осадки,
мм/ч
давл.,
гПа
погр.,
м
1 марта, пн
пн100:00+24юв31088100 0.0 1009571
03:00+24вюв31087100 0.1 1008487
06:00+24юв3988100 0.1 1009405
09:00+28в487399 0.1 1010547
12:00+32вюв345651 0.0 1009870
15:00+33ю345355 0.1 10081485
18:00+28ююв248087 3.7 1008107
21:00+26вюв5138294 3.8 1010508
2 марта, вт
вт200:00+25в41083100 0.0 1010335
03:00+26в1374100 0.0 1009124
06:00+25в2275100 0.0 100963
09:00+30всв376095 0.0 1011784
12:00+34с144478 0.0 10101777
15:00+29зюз347082 1.1 1008333
18:00+26зсз248790 3.2 1009161
21:00+24ююз369495 5.8 1011303
3 марта, ср
ср300:00+23вюв3795100 0.3 1011301
03:00+23в389299 0.3 1008293
06:00+23в248991 0.0 1008117
09:00+27с237194 0.0 1009290
12:00+33зюз225177 0.0 10081014
15:00+30з456372 0.7 1007671
18:00+27зюз237785 0.4 1007167
21:00+24юв118791 0.9 100857
4 марта, чт
чт400:00+24св228986 0.0 100735
03:00+23всв228786 0.0 100639
06:00+23св228559 0.0 100644
09:00+28сз246664 0.0 1007527
12:00+31зсз336140 0.6 10061079
15:00+29юз447655 4.1 1005505
18:00+26юз258750 4.4 1005201
21:00+24вюв129175 5.0 100767
5 марта, пт
пт500:00+24всв2392100 0.8 100778
03:00+23всв2690100 0.8 1005164
06:00+23всв2589100 1.1 1006135
09:00+28всв256985 1.3 1006577
12:00+33всв035192 0.1 10061346
15:00+29юз337367 4.6 1004661
18:00+26ю3687100 6.2 1004232
21:00+24вюв2290100 9.3 100559